Radiation Dose at Monitoring Post of Fukushima Daini Nuclear Power Station
Date,Time,MP-1(microSv/h),MP-2(microSv/h),MP-3(microSv/h),MP-4(microSv/h),MP-5(microSv/h),MP-6(microSv/h),MP-7(microSv/h),Wind Direction,Wind Velocity(m/s),Rain
2018/06/05,00:00,0.319,0.196,0.323,0.310,0.300,0.159,0.098,south,2.4,No
2018/06/05,00:10,0.317,0.198,0.322,0.308,0.302,0.158,0.098,south-southwest,2.2,No
2018/06/05,00:20,0.320,0.196,0.324,0.311,0.299,0.159,0.097,south-southwest,2.5,No
2018/06/05,00:30,0.317,0.198,0.322,0.310,0.301,0.158,0.098,south,2.1,No
2018/06/05,00:40,0.319,0.197,0.323,0.309,0.300,0.159,0.098,south,2.7,No
2018/06/05,00:50,0.317,0.197,0.322,0.312,0.301,0.159,0.098,south,1.9,No
2018/06/05,01:00,0.318,0.196,0.323,0.308,0.301,0.159,0.097,south-southeast,1.6,No
2018/06/05,01:10,0.318,0.196,0.321,0.311,0.301,0.159,0.097,south,1.8,No
2018/06/05,01:20,0.318,0.199,0.322,0.309,0.300,0.158,0.098,south,2.3,No
2018/06/05,01:30,0.318,0.196,0.321,0.311,0.300,0.159,0.098,south-southwest,2.1,No
2018/06/05,01:40,0.317,0.197,0.320,0.309,0.301,0.158,0.097,south-southwest,2.4,No
2018/06/05,01:50,0.320,0.197,0.323,0.309,0.299,0.159,0.097,southwest,2.2,No
2018/06/05,02:00,0.317,0.196,0.321,0.310,0.302,0.158,0.098,southwest,2.6,No
2018/06/05,02:10,0.318,0.198,0.322,0.308,0.299,0.159,0.097,southwest,1.8,No
2018/06/05,02:20,0.317,0.197,0.322,0.310,0.301,0.159,0.097,southwest,1.8,No
2018/06/05,02:30,0.318,0.196,0.322,0.309,0.300,0.158,0.097,southwest,2.1,No
2018/06/05,02:40,0.318,0.196,0.322,0.310,0.302,0.159,0.097,southwest,1.8,No
2018/06/05,02:50,0.316,0.196,0.322,0.309,0.301,0.159,0.098,southwest,1.8,No
2018/06/05,03:00,0.318,0.197,0.323,0.308,0.299,0.158,0.097,southwest,1.9,No
2018/06/05,03:10,0.317,0.196,0.322,0.311,0.299,0.158,0.097,south-southwest,2.2,No
2018/06/05,03:20,0.318,0.197,0.322,0.308,0.300,0.160,0.097,south-southwest,1.8,No
2018/06/05,03:30,0.318,0.197,0.321,0.311,0.302,0.158,0.097,southwest,1.7,No
2018/06/05,03:40,0.317,0.196,0.321,0.309,0.300,0.158,0.097,south-southwest,1.8,No
2018/06/05,03:50,0.317,0.197,0.324,0.309,0.301,0.158,0.097,south-southwest,1.4,No
2018/06/05,04:00,0.316,0.197,0.321,0.310,0.299,0.159,0.097,south,0.7,No
2018/06/05,04:10,0.318,0.196,0.323,0.308,0.301,0.158,0.097,south-southwest,1.3,No
2018/06/05,04:20,0.317,0.197,0.323,0.311,0.301,0.159,0.097,south-southwest,1.7,No
2018/06/05,04:30,0.318,0.196,0.321,0.308,0.299,0.159,0.099,south-southwest,1.0,No
2018/06/05,04:40,0.317,0.197,0.321,0.309,0.300,0.159,0.098,south-southwest,1.4,No
2018/06/05,04:50,0.318,0.197,0.322,0.310,0.299,0.159,0.097,south-southwest,2.0,No
2018/06/05,05:00,0.318,0.197,0.323,0.309,0.301,0.157,0.098,south-southwest,1.7,No
2018/06/05,05:10,0.317,0.196,0.323,0.311,0.298,0.159,0.097,south-southwest,1.4,No
2018/06/05,05:20,0.318,0.197,0.324,0.309,0.302,0.158,0.098,south,1.1,No
2018/06/05,05:30,0.317,0.195,0.322,0.310,0.297,0.159,0.097,south,1.1,No
2018/06/05,05:40,0.318,0.195,0.321,0.309,0.301,0.158,0.098,south,1.3,No
2018/06/05,05:50,0.316,0.196,0.323,0.310,0.299,0.160,0.097,south,1.5,No
2018/06/05,06:00,0.320,0.197,0.322,0.308,0.297,0.158,0.097,south,1.1,No
2018/06/05,06:10,0.315,0.195,0.322,0.310,0.301,0.159,0.098,west-southwest,1.2,No
2018/06/05,06:20,0.317,0.197,0.322,0.308,0.299,0.158,0.097,southwest,1.2,No
2018/06/05,06:30,0.315,0.197,0.322,0.309,0.297,0.159,0.097,west-southwest,0.7,No
2018/06/05,06:40,0.318,0.195,0.322,0.307,0.299,0.158,0.097,-,CALM,No
2018/06/05,06:50,0.319,0.195,0.320,0.310,0.301,0.159,0.098,-,CALM,No
2018/06/05,07:00,0.317,0.197,0.324,0.309,0.298,0.159,0.097,west,0.6,No
2018/06/05,07:10,0.320,0.196,0.320,0.306,0.302,0.159,0.097,-,CALM,No
2018/06/05,07:20,0.315,0.197,0.319,0.309,0.301,0.159,0.098,-,CALM,No
2018/06/05,07:30,0.321,0.198,0.318,0.309,0.300,0.159,0.099,-,CALM,No
2018/06/05,07:40,0.319,0.198,0.317,0.306,0.303,0.160,0.098,northeast,1.2,No
2018/06/05,07:50,0.315,0.196,0.323,0.308,0.300,0.159,0.098,east,1.5,No
2018/06/05,08:00,0.320,0.196,0.323,0.311,0.296,0.159,0.097,east-northeast,1.3,No
2018/06/05,08:10,0.319,0.198,0.321,0.310,0.302,0.161,0.098,east-southeast,1.3,No
2018/06/05,08:20,0.317,0.198,0.317,0.309,0.303,0.159,0.098,east,1.2,No
2018/06/05,08:30,0.319,0.196,0.322,0.307,0.300,0.160,0.098,east,1.4,No
2018/06/05,08:40,0.318,0.196,0.324,0.305,0.297,0.159,0.098,east,1.0,No
2018/06/05,08:50,0.315,0.196,0.321,0.305,0.300,0.159,0.097,east-northeast,1.8,No
2018/06/05,09:00,0.319,0.198,0.320,0.308,0.302,0.159,0.098,east-northeast,2.5,No
2018/06/05,09:10,0.319,0.197,0.321,0.306,0.301,0.158,0.098,east,2.1,No
2018/06/05,09:20,0.317,0.197,0.324,0.307,0.299,0.159,0.096,east-southeast,2.5,No
2018/06/05,09:30,0.314,0.196,0.321,0.307,0.297,0.159,0.096,east-southeast,1.5,No
2018/06/05,09:40,0.314,0.195,0.321,0.307,0.296,0.158,0.097,east-southeast,1.4,No
2018/06/05,09:50,0.315,0.197,0.326,0.307,0.298,0.158,0.097,east-southeast,2.5,No
2018/06/05,10:00,0.319,0.198,0.322,0.306,0.302,0.158,0.097,east-southeast,2.8,No
2018/06/05,10:10,0.319,0.196,0.319,0.307,0.301,0.158,0.097,southeast,2.2,No
2018/06/05,10:20,0.316,0.196,0.318,0.307,0.300,0.159,0.097,southeast,2.0,No
2018/06/05,10:30,0.316,0.196,0.318,0.307,0.299,0.160,0.096,southeast,2.5,No
2018/06/05,10:40,0.313,0.195,0.318,0.308,0.297,0.157,0.096,southeast,2.1,No
2018/06/05,10:50,0.316,0.196,0.319,0.309,0.298,0.158,0.096,south-southeast,1.5,No
2018/06/05,11:00,0.319,0.193,0.317,0.308,0.296,0.158,0.096,southeast,3.1,No
2018/06/05,11:10,0.318,0.194,0.320,0.308,0.297,0.159,0.096,southeast,2.9,No
2018/06/05,11:20,0.318,0.197,0.320,0.310,0.297,0.159,0.097,southeast,2.1,No
2018/06/05,11:30,0.316,0.198,0.324,0.311,0.298,0.158,0.098,south-southeast,2.8,No
2018/06/05,11:40,0.315,0.197,0.323,0.309,0.297,0.158,0.097,southeast,1.4,No
2018/06/05,11:50,0.315,0.196,0.322,0.309,0.298,0.158,0.098,southeast,1.9,No
2018/06/05,12:00,0.314,0.196,0.320,0.309,0.302,0.159,0.096,southeast,3.3,No
2018/06/05,12:10,0.317,0.195,0.319,0.306,0.304,0.158,0.097,southeast,3.0,No
2018/06/05,12:20,0.319,0.195,0.320,0.308,0.302,0.159,0.096,southeast,3.1,No
2018/06/05,12:30,0.319,0.195,0.319,0.305,0.300,0.160,0.097,southeast,2.0,No
2018/06/05,12:40,0.316,0.196,0.320,0.310,0.298,0.158,0.097,southeast,1.8,No
2018/06/05,12:50,0.315,0.195,0.318,0.313,0.298,0.158,0.097,south-southeast,1.5,No
2018/06/05,13:00,0.316,0.195,0.321,0.311,0.298,0.158,0.097,southeast,4.3,No
2018/06/05,13:10,0.315,0.195,0.320,0.308,0.300,0.158,0.097,southeast,2.9,No
2018/06/05,13:20,0.315,0.195,0.319,0.307,0.298,0.158,0.097,southeast,2.6,No
2018/06/05,13:30,0.315,0.196,0.321,0.306,0.297,0.159,0.097,southeast,1.3,No
2018/06/05,13:40,0.315,0.196,0.320,0.307,0.299,0.159,0.096,southeast,1.4,No
2018/06/05,13:50,0.318,0.199,0.324,0.309,0.299,0.159,0.097,-,CALM,No
2018/06/05,14:00,0.321,0.199,0.325,0.311,0.304,0.159,0.098,-,CALM,No
2018/06/05,14:10,0.318,0.196,0.323,0.309,0.304,0.159,0.097,-,CALM,No
2018/06/05,14:20,0.316,0.196,0.320,0.309,0.301,0.160,0.096,-,CALM,No
2018/06/05,14:30,0.316,0.198,0.323,0.307,0.298,0.158,0.096,-,CALM,No
2018/06/05,14:40,0.318,0.198,0.324,0.313,0.299,0.159,0.097,-,CALM,No
2018/06/05,14:50,0.320,0.198,0.321,0.311,0.297,0.158,0.097,southeast,2.7,No
2018/06/05,15:00,0.319,0.196,0.319,0.308,0.303,0.159,0.097,south-southeast,2.7,No
2018/06/05,15:10,0.317,0.196,0.323,0.309,0.302,0.159,0.096,south-southeast,4.0,No
2018/06/05,15:20,0.315,0.198,0.324,0.312,0.300,0.158,0.096,south-southeast,3.5,No
2018/06/05,15:30,0.314,0.198,0.321,0.311,0.299,0.158,0.097,south-southeast,1.6,No
2018/06/05,15:40,0.322,0.196,0.320,0.307,0.300,0.159,0.097,south-southeast,3.1,No
2018/06/05,15:50,0.320,0.196,0.325,0.311,0.301,0.159,0.096,south-southeast,3.2,No
2018/06/05,16:00,0.316,0.198,0.325,0.311,0.301,0.158,0.096,south,3.1,No
2018/06/05,16:10,0.318,0.197,0.322,0.308,0.301,0.159,0.098,south,3.7,No
2018/06/05,16:20,0.321,0.195,0.324,0.311,0.300,0.159,0.097,south,2.3,No
2018/06/05,16:30,0.319,0.196,0.323,0.312,0.301,0.158,0.096,south,3.6,No
2018/06/05,16:40,0.316,0.198,0.321,0.309,0.301,0.159,0.098,south,2.9,No
2018/06/05,16:50,0.320,0.197,0.324,0.311,0.299,0.160,0.098,south,2.3,No
2018/06/05,17:00,0.320,0.197,0.323,0.313,0.302,0.158,0.096,south,2.5,No
2018/06/05,17:10,0.316,0.198,0.320,0.309,0.301,0.158,0.096,south-southeast,1.3,No
2018/06/05,17:20,0.320,0.197,0.324,0.311,0.300,0.159,0.097,south-southeast,1.5,No
2018/06/05,17:30,0.318,0.197,0.323,0.313,0.304,0.159,0.096,south-southeast,1.7,No
2018/06/05,17:40,0.315,0.197,0.322,0.309,0.300,0.159,0.098,south-southeast,1.6,No
2018/06/05,17:50,0.321,0.197,0.324,0.312,0.302,0.159,0.097,south,1.3,No
2018/06/05,18:00,0.317,0.198,0.322,0.311,0.303,0.158,0.097,south-southwest,1.0,No
2018/06/05,18:10,0.318,0.198,0.324,0.309,0.297,0.159,0.098,south,1.6,No
2018/06/05,18:20,0.321,0.198,0.322,0.312,0.302,0.159,0.097,south,2.6,No
2018/06/05,18:30,0.317,0.195,0.322,0.309,0.304,0.158,0.096,south,3.0,No
2018/06/05,18:40,0.319,0.197,0.324,0.311,0.299,0.159,0.098,south,2.3,No
2018/06/05,18:50,0.319,0.198,0.322,0.309,0.303,0.158,0.097,south,1.5,No
2018/06/05,19:00,0.317,0.196,0.323,0.309,0.300,0.159,0.097,south,2.2,No
2018/06/05,19:10,0.320,0.198,0.322,0.314,0.300,0.161,0.097,south,2.0,No
2018/06/05,19:20,0.317,0.197,0.321,0.309,0.302,0.158,0.097,south,1.8,No
2018/06/05,19:30,0.319,0.196,0.325,0.310,0.299,0.160,0.096,south,1.4,No
2018/06/05,19:40,0.318,0.197,0.321,0.311,0.302,0.159,0.096,south,1.2,No
2018/06/05,19:50,0.317,0.197,0.324,0.309,0.300,0.158,0.097,south,1.9,No
2018/06/05,20:00,0.319,0.197,0.323,0.312,0.302,0.159,0.097,south,2.3,No
2018/06/05,20:10,0.318,0.197,0.322,0.309,0.300,0.159,0.096,south,5.1,No
2018/06/05,20:20,0.319,0.197,0.324,0.312,0.300,0.159,0.097,south,4.5,No
2018/06/05,20:30,0.318,0.197,0.321,0.311,0.302,0.159,0.096,south,4.3,No
2018/06/05,20:40,0.318,0.197,0.324,0.310,0.299,0.159,0.099,south,5.3,No
2018/06/05,20:50,0.321,0.197,0.323,0.313,0.303,0.159,0.097,south,4.1,No
2018/06/05,21:00,0.318,0.197,0.323,0.308,0.300,0.159,0.097,south,4.3,No
2018/06/05,21:10,0.319,0.197,0.324,0.312,0.300,0.159,0.097,south,4.6,No
2018/06/05,21:20,0.318,0.196,0.322,0.309,0.302,0.158,0.096,south,5.6,No
2018/06/05,21:30,0.318,0.198,0.324,0.311,0.299,0.159,0.098,south,3.2,No
2018/06/05,21:40,0.319,0.196,0.322,0.311,0.303,0.160,0.097,south,2.9,No
2018/06/05,21:50,0.316,0.197,0.325,0.310,0.301,0.157,0.097,south,5.3,No
2018/06/05,22:00,0.319,0.195,0.321,0.311,0.301,0.159,0.097,south,4.3,No
2018/06/05,22:10,0.317,0.198,0.323,0.308,0.303,0.159,0.096,south,5.1,No
2018/06/05,22:20,0.317,0.197,0.323,0.313,0.298,0.158,0.097,south,5.1,No
2018/06/05,22:30,0.320,0.197,0.322,0.311,0.302,0.159,0.097,south-southwest,5.0,No
2018/06/05,22:40,0.316,0.197,0.325,0.309,0.301,0.158,0.097,south-southwest,3.8,No
2018/06/05,22:50,0.320,0.196,0.322,0.312,0.300,0.159,0.097,south-southwest,2.8,No
2018/06/05,23:00,0.317,0.198,0.324,0.310,0.303,0.159,0.097,south,3.2,No
2018/06/05,23:10,0.318,0.197,0.322,0.313,0.299,0.158,0.097,south-southwest,2.6,No
2018/06/05,23:20,0.320,0.197,0.322,0.310,0.302,0.160,0.097,southwest,1.7,No
2018/06/05,23:30,0.317,0.198,0.326,0.310,0.299,0.158,0.098,west-southwest,1.3,No
2018/06/05,23:40,0.319,0.198,0.321,0.311,0.301,0.159,0.097,west-southwest,1.6,No
2018/06/05,23:50,0.317,0.198,0.326,0.309,0.304,0.160,0.097,-,CALM,No
